Location: Quedlinburg
(51.7921°N, 11.1414°E)
Time: 05:51:16
(UTC+02:00)

METEOR M2 - Pass Details

Date: 17 March 2026
Orbit: 817 x 824 km, 98.5° (Epoch: 17 April)

Event Time Altitude Azimuth Distance (km) Brightness Sun altitude
Rises 04:56:56 0° 14° (NNE) 3,375 ? -14.3°
Reaches altitude 10° 04:59:17 10° 14° (NNE) 2,437 ? -14.0°
Maximum altitude 05:04:42 85° 287° (WNW) 835 ? -13.2°
Drops below altitude 10° 05:10:05 10° 200° (SSW) 2,419 ? -12.4°
Sets 05:12:25 0° 199° (SSW) 3,347 ? -12.0°
